weather.gov     
National Weather Service

Miscellaneous Local Product
NWS Homepage
This page is being discontinued on March 12, 2014.
The same data is available at this site. Please update your bookmarks.
Thank you, and we apologize for the inconvenience.
Please send an email to SR-SRH.Webmaster@noaa.gov with any concerns.


Current Version
Previous Version:    01  02  03  04  05  06  07  08  09  10  11  12  13  14  15  16  17  18  19  20  21  22  23  24  25  26  27  28  29  30  
   31  32  33  34  35  36  37  38  39  40  41  42  43  44  45  46  47  48  49  50  51  52  53  54  55  56  57  58  59  60  
[Printable]
976
AXUS43 KLBF 182010
MISLBF


WESTERN AND NORTH CENTRAL NEBRASKA HOURLY WEATHER ROUNDUP
NATIONAL WEATHER SERVICE NORTH PLATTE NE
300 PM CDT FRI APR 18 2014

***STATIONS NOT REPORTING VARIABLES SUCH AS SKY/WEATHER OR
PRESSURE ARE PROVIDED BY THE NEBRASKA DEPARTMENT OF
ROADS...RAWS...AND APRS NETWORKS...AND ARE NOT UNDER
NATIONAL WEATHER SERVICE QUALITY CONTROL***

...OBSERVATIONS IN AND NEAR THE EASTERN PANHANDLE OF NEBRASKA...

CITY           SKY/WX    TMP DP  RH WIND       PRES   REMARKS
PINE RIDGE     CLOUDY    75  42  30 S13       29.77F
CHADRON        CLOUDY    77  41  27 SW22G30   29.75F
ALLIANCE       CLOUDY    74  33  22 S22       29.86F
SIDNEY         PTSUNNY   78  34  20 S17G25    29.91F
WHITECLAY        N/A     76  37  24 S18         N/A
LISCO            N/A     79  28  15 SE18        N/A
BIG SPRINGS      N/A     74  42  31 S18         N/A
LEWELLEN         N/A     80  32  18 S15         N/A
$$

...OBSERVATIONS IN SOUTHWEST NEBRASKA AND FAR NORTHEAST COLORADO...

CITY           SKY/WX    TMP DP  RH WIND       PRES   REMARKS
WRAY           FAIR      78  37  22 SE20      29.93F
HOLYOKE        FAIR      79  34  19 S15G28    29.91F
IMPERIAL       PTSUNNY   75  38  26 S20G25    29.93F
OGALLALA       CLOUDY    73  37  26 S18G26    29.91F
NORTH PLATTE   CLOUDY    70  41  34 S20G26    29.95F
MCCOOK         MOSUNNY   71  42  35 S28G36    29.99F
LEXINGTON      MOSUNNY   67  42  39 S28G33    30.00F
PAXTON           N/A     70  42  35 S21         N/A
SUTHERLAND       N/A     71  39  31 S17         N/A
MEDICINE CREEK   N/A     67  46  47 SW15        N/A
GOTHENBURG       N/A     67  45  44 SW6G17      N/A
CALLAWAY         N/A     65  45  48 S30         N/A
$$

...OBSERVATIONS IN NORTH CENTRAL NEBRASKA...

CITY           SKY/WX    TMP DP  RH WIND       PRES   REMARKS
VALENTINE      MOSUNNY   74  32  21 S28G39    29.83F
THEDFORD       PTSUNNY   72  34  25 S21G36    29.92F
AINSWORTH      MOSUNNY   73  37  27 S32       29.88F
O`NEILL        MOSUNNY   70  35  27 S32G38    29.96F
ORD            MOSUNNY   68  40  35 S24G37    30.00F
BROKEN BOW     MOSUNNY   68  42  38 S29G37    29.99F
BROWNLEE         N/A     74  32  22 S30         N/A
SPRINGVIEW       N/A     72  40  31 SW20G36     N/A
DUNNING          N/A     70  40  33 S23         N/A
BREWSTER         N/A     71  42  35 S24         N/A
ROSE             N/A     73  46  38 SE30        N/A
NEWPORT          N/A     71  42  35 S25         N/A
COMSTOCK         N/A     73  45  36 S29         N/A
CHAMBERS         N/A     70  42  36 S17G30      N/A
EWING            N/A     68  40  35 S15G26      N/A
$$

...SOME WEATHER OBSERVATIONS FROM AROUND THE REGION...

CITY           SKY/WX    TMP DP  RH WIND       PRES   REMARKS
DENVER         PTSUNNY   77  24  14 SE15G22   29.92F
LARAMIE        CLOUDY    68  24  19 S28G37    29.95F
CHEYENNE       PTSUNNY   71  28  20 SW14G25   29.93F
SCOTTSBLUFF    CLOUDY    81  36  19 SW14      29.82F
RAPID CITY     CLOUDY    76  36  23 S26G32    29.68F
PIERRE         CLOUDY    76  40  27 S20G29    29.74F
WINNER         FAIR      79  33  19 S25G40    29.81F
SIOUX FALLS    PTSUNNY   64  35  34 S26G37    30.07F
OMAHA          SUNNY     66  35  31 S21G29    30.17F
GRAND ISLAND   MOSUNNY   68  42  38 S24G35    30.07F
KANSAS CITY    MOSUNNY   66  39  37 VRB3      30.24F
WICHITA        MOSUNNY   68  43  40 SE13      30.18F
HAYS           MOSUNNY   70  45  40 S25G35    30.09F
LIBERAL        SUNNY     70  43  37 S20G30    30.10F
GOODLAND       SUNNY     72  38  29 S29       29.97F
$$




U.S. Dept. of Commerce
NOAA National Weather Service
1325 East West Highway
Silver Spring, MD 20910
E-mail: w-nws.webmaster@noaa.gov
Page last modified: May 16, 2007
NATIONAL WEATHER SERVICE: for Safety, for Work, for Fun - FOR LIFE